| time (UTC) | temp F | wind direction | speed MPH | gust MPH | rain 1hr in | rain 24hr in | rain mn in | humidity % | barometer mb |
| 20260505074640 | 36 | 9 | 0.0 | 0.0 | 0.00 | 0.00 | 0.00 | 46 | 1000.9 |
| 20260505073050 | 37 | 9 | 0.0 | 0.0 | 0.00 | 0.00 | 0.00 | 44 | 1001.0 |
| 20260505071545 | 37 | 9 | 0.0 | 2.0 | 0.00 | 0.00 | 0.00 | 43 | 1000.9 |
| 20260505070042 | 38 | 9 | 0.0 | 2.0 | 0.00 | 0.00 | 0.00 | 42 | 1000.9 |
| 20260505064535 | 38 | 85 | 1.0 | 3.0 | 0.00 | 0.00 | 0.00 | 41 | 1001.0 |
| 20260505063037 | 39 | 76 | 1.0 | 3.0 | 0.00 | 0.00 | 0.00 | 40 | 1001.0 |
| 20260505061530 | 40 | 62 | 1.0 | 4.0 | 0.00 | 0.00 | 0.00 | 38 | 1000.8 |
| 20260505060049 | 40 | 108 | 2.0 | 5.0 | 0.00 | 0.00 | 0.00 | 37 | 1000.7 |
| 20260505054524 | 40 | 132 | 1.0 | 3.0 | 0.00 | 0.00 | 0.00 | 38 | 1000.7 |
| 20260505053023 | 41 | 76 | 0.0 | 3.0 | 0.00 | 0.00 | 0.00 | 36 | 1000.6 |
| 20260505051521 | 41 | 109 | 1.0 | 4.0 | 0.00 | 0.00 | 0.00 | 36 | 1000.4 |
| 20260505041516 | 42 | 140 | 1.0 | 5.0 | 0.00 | 0.00 | 0.00 | 36 | 999.4 |
| 20260505040020 | 43 | 115 | 1.0 | 8.0 | 0.00 | 0.00 | 0.00 | 37 | 999.3 |
| 20260505034513 | 44 | 142 | 1.0 | 4.0 | 0.00 | 0.00 | 0.00 | 43 | 999.1 |
| 20260505033015 | 44 | 130 | 2.0 | 6.0 | 0.00 | 0.00 | 0.00 | 40 | 998.8 |
| 20260505031515 | 45 | 148 | 2.0 | 7.0 | 0.00 | 0.00 | 0.00 | 38 | 998.6 |
| 20260505030014 | 46 | 5 | 0.0 | 3.0 | 0.00 | 0.00 | 0.00 | 37 | 998.4 |
| 20260505024514 | 46 | 113 | 1.0 | 4.0 | 0.00 | 0.00 | 0.00 | 36 | 998.3 |
| 20260505023013 | 46 | 127 | 1.0 | 6.0 | 0.00 | 0.00 | 0.00 | 37 | 998.2 |
| 20260505021514 | 47 | 121 | 1.0 | 5.0 | 0.00 | 0.00 | 0.00 | 36 | 998.0 |
| 20260505020013 | 48 | 134 | 1.0 | 4.0 | 0.00 | 0.00 | 0.00 | 34 | 997.8 |
| 20260505014525 | 48 | 125 | 2.0 | 5.0 | 0.00 | 0.00 | 0.00 | 34 | 997.7 |
| 20260505013013 | 50 | 109 | 1.0 | 6.0 | 0.00 | 0.00 | 0.00 | 33 | 997.2 |
| 20260505011513 | 51 | 116 | 3.0 | 6.0 | 0.00 | 0.00 | 0.00 | 30 | 996.4 |
| 20260505010013 | 52 | 138 | 1.0 | 6.0 | 0.00 | 0.00 | 0.00 | 29 | 996.2 |
| 20260505004512 | 53 | 180 | 1.0 | 4.0 | 0.00 | 0.00 | 0.00 | 28 | 995.8 |
| 20260505003011 | 54 | 122 | 5.0 | 9.0 | 0.00 | 0.00 | 0.00 | 26 | 995.6 |
| 20260505001511 | 55 | 130 | 1.0 | 7.0 | 0.00 | 0.00 | 0.00 | 28 | 995.3 |
| 20260505000012 | 56 | 151 | 3.0 | 8.0 | 0.00 | 0.00 | 0.00 | 26 | 994.9 |
| 20260504234509 | 58 | 144 | 2.0 | 8.0 | 0.00 | 0.00 | 0.00 | 25 | 994.7 |
| 20260504233011 | 59 | 133 | 2.0 | 10.0 | 0.00 | 0.00 | 0.00 | 22 | 994.4 |
| 20260504231509 | 59 | 178 | 2.0 | 9.0 | 0.00 | 0.00 | 0.00 | 23 | 994.2 |
| 20260504230009 | 60 | 104 | 3.0 | 9.0 | 0.00 | 0.00 | 0.00 | 23 | 993.9 |
| 20260504224516 | 60 | 232 | 2.0 | 11.0 | 0.00 | 0.00 | 0.00 | 24 | 993.9 |
| 20260504223010 | 61 | 137 | 2.0 | 5.0 | 0.00 | 0.00 | 0.00 | 24 | 993.9 |
| 20260504221508 | 62 | 121 | 1.0 | 6.0 | 0.00 | 0.00 | 0.00 | 23 | 993.7 |
| 20260504220007 | 62 | 123 | 3.0 | 8.0 | 0.00 | 0.00 | 0.00 | 22 | 993.6 |
| 20260504214506 | 62 | 62 | 4.0 | 9.0 | 0.00 | 0.00 | 0.00 | 22 | 993.2 |
| 20260504213015 | 62 | 126 | 2.0 | 9.0 | 0.00 | 0.00 | 0.00 | 22 | 993.4 |
| 20260504211515 | 62 | 289 | 3.0 | 6.0 | 0.00 | 0.00 | 0.00 | 22 | 993.1 |
| 20260504210005 | 63 | 132 | 1.0 | 8.0 | 0.00 | 0.00 | 0.00 | 19 | 992.9 |
| 20260504204505 | 64 | 48 | 2.0 | 6.0 | 0.00 | 0.00 | 0.00 | 17 | 992.6 |
| 20260504203005 | 65 | 77 | 2.0 | 8.0 | 0.00 | 0.00 | 0.00 | 16 | 992.2 |
| 20260504201503 | 65 | 107 | 2.0 | 6.0 | 0.00 | 0.00 | 0.00 | 17 | 992.2 |
| 20260504200006 | 65 | 132 | 2.0 | 10.0 | 0.00 | 0.00 | 0.00 | 17 | 992.1 |
| 20260504194504 | 66 | 161 | 3.0 | 12.0 | 0.00 | 0.00 | 0.00 | 13 | 991.8 |
| 20260504193002 | 67 | 47 | 3.0 | 11.0 | 0.00 | 0.00 | 0.00 | 13 | 991.8 |
| 20260504191502 | 67 | 117 | 1.0 | 11.0 | 0.00 | 0.00 | 0.00 | 14 | 991.6 |
| 20260504190110 | 67 | 61 | 2.0 | 12.0 | 0.00 | 0.00 | 0.00 | 11 | 991.6 |
| 20260504184558 | 67 | 94 | 4.0 | 16.0 | 0.00 | 0.00 | 0.00 | 18 | 991.6 |
| 20260504183056 | 67 | 113 | 4.0 | 9.0 | 0.00 | 0.00 | 0.00 | 19 | 991.5 |
| 20260504181601 | 67 | 156 | 4.0 | 12.0 | 0.00 | 0.00 | 0.00 | 22 | 991.4 |
| 20260504180055 | 66 | 94 | 5.0 | 12.0 | 0.00 | 0.00 | 0.00 | 20 | 991.3 |
| 20260504174554 | 67 | 111 | 4.0 | 10.0 | 0.00 | 0.00 | 0.00 | 22 | 991.2 |
| 20260504173057 | 66 | 73 | 5.0 | 13.0 | 0.00 | 0.00 | 0.00 | 22 | 991.2 |
| 20260504171553 | 67 | 80 | 4.0 | 11.0 | 0.00 | 0.00 | 0.00 | 23 | 991.2 |
| 20260504081506 | 43 | 147 | 0.0 | 0.0 | 0.00 | 0.00 | 0.00 | 46 | 998.0 |